This is the latest recevied weather packets stored in our database for station/object HP1COO-13. If no packets are shown the sender has not sent any weather packets the latest 1 day(s).
| Time | Temp. | Humidity | Pressure | Rain* | Wind** | Luminosity | Snow |
|---|---|---|---|---|---|---|---|
| 1777980884 | 25.56° C | 93% | 1008.1 hPa | 0 mm | 0.89 m/s, 360° | - | - |
| 1777980251 | 25° C | 94% | 1008.1 hPa | 0 mm | 0.89 m/s, 322° | - | - |
| 1777979618 | 25° C | 95% | 1008.4 hPa | 0 mm | 0.45 m/s, 345° | - | - |
| 1777978985 | 25° C | 95% | 1008.1 hPa | 0 mm | 0.45 m/s, 264° | - | - |
| 1777978352 | 25° C | 94% | 1007.9 hPa | 0 mm | 0.45 m/s, 25° | - | - |
| 1777977719 | 25.56° C | 94% | 1008.1 hPa | 0 mm | 0.45 m/s, 311° | - | - |
| 1777977086 | 25.56° C | 93% | 1007.5 hPa | 0 mm | 0.45 m/s, 7° | - | - |
| 1777975820 | 25.56° C | 93% | 1007.5 hPa | 0 mm | 0 m/s | - | - |
| 1777974554 | 25.56° C | 93% | 1007 hPa | 0 mm | 0.89 m/s, 35° | - | - |
| 1777973288 | 25.56° C | 93% | 1007.1 hPa | 0 mm | 0 m/s | - | - |
| 1777972655 | 25.56° C | 93% | 1007.1 hPa | 0 mm | 0.89 m/s, 5° | - | - |
| 1777972022 | 25.56° C | 93% | 1007 hPa | 0 mm | 0.89 m/s, 358° | - | - |
| 1777971389 | 25.56° C | 93% | 1007.1 hPa | 0 mm | 0.89 m/s, 347° | - | - |
| 1777970756 | 25.56° C | 93% | 1007.1 hPa | 0 mm | 0.89 m/s, 332° | - | - |
| 1777969490 | 25.56° C | 94% | 1007.2 hPa | 0 mm | 0.45 m/s, 334° | - | - |
| 1777968857 | 25.56° C | 93% | 1007.4 hPa | 0 mm | 0.89 m/s, 324° | - | - |
| 1777968224 | 25.56° C | 93% | 1007.6 hPa | 0 mm | 0.45 m/s, 10° | - | - |
| 1777967591 | 25.56° C | 93% | 1007.4 hPa | 0 mm | 1.34 m/s, 331° | - | - |
| 1777966958 | 25.56° C | 93% | 1007.5 hPa | 0 mm | 0 m/s | - | - |
| 1777966325 | 25.56° C | 93% | 1007.5 hPa | 0 mm | 0.89 m/s, 338° | - | - |
| 1777965692 | 26.11° C | 93% | 1007.6 hPa | 0 mm | 0.89 m/s, 269° | - | - |
| 1777965059 | 26.11° C | 92% | 1007.6 hPa | 0 mm | 0.45 m/s, 353° | - | - |
| 1777964426 | 26.11° C | 93% | 1007.8 hPa | 0 mm | 1.34 m/s, 357° | - | - |
| 1777963793 | 26.11° C | 92% | 1008.1 hPa | 0 mm | 1.79 m/s, 9° | - | - |
| 1777963160 | 26.11° C | 93% | 1008.1 hPa | 0 mm | 1.79 m/s, 356° | - | - |
* Rain latest hour (hover to see other rain measurements)
** Current wind speed in m/s (hover to see current wind gust speed)